Regional Weather Roundup
Issued by NWS

Home | Current Version | Previous Version | Graphics & Text | Print | Product List | Glossary On
Versions: 1 2 3 4 5 6 7 8 9 10 11 12 13 14 15 16 17 18 19 20 21 22 23 24 25 26 27 28 29 30 31 32 33 34 35 36 37 38 39 40 41 42 43 44 45 46 47 48 49 50
000
ASUS45 KTFX 222204
RWRMT
MONTANA HOURLY WEATHER ROUNDUP
NATIONAL WEATHER SERVICE GREAT FALLS MT
404 PM MDT FRI AUG 22 2014

NOTE: "FAIR" INDICATES FEW OR NO CLOUDS BELOW 12000 FEET WITH NO
SIGNIFICANT WEATHER AND/OR OBSTRUCTIONS TO VISIBILITY.

* THESE STATIONS ARE NOT UNDER NWS QUALITY CONTROL. THEY DO NOT
   REPORT WEATHER SUCH AS PRECIPITATION OR FOG.

MTZ001>007-043-222300-
WEST OF THE DIVIDE
CITY           SKY/WX    TMP DP  RH WIND       PRES   REMARKS
KALISPELL      CLOUDY    61  52  72 NW7       30.08F
MISSOULA       CLOUDY    66  52  61 N12       30.02F
BUTTE          CLOUDY    64  46  52 NE10      30.06F
MULLAN PASS    PTSUNNY   57  48  72 CALM      30.10S
* ESSEX        N/A       58  43  58 NE8G17     N/A
* LINCOLN      N/A       61  47  60 NE12G19    N/A
* LOOKOUT PASS N/A       59  46  62 NW12G18    N/A
* POLSON       N/A       60  48  65 N3G8       N/A
* RONAN APT    CLOUDY    61  52  72 N13G21     N/A
* SEELEY LAKE  N/A       62  50  65 W3G8       N/A
* THOMP F APT  PTSUNNY   57  46  67 S7G15      N/A
$$

MTZ008-052>055-222300-
SOUTHWEST MONTANA
CITY           SKY/WX    TMP DP  RH WIND       PRES   REMARKS
BOZEMAN        CLOUDY    63  48  58 S9        30.05S
DILLON         TSTM      61  48  62 NE10      30.04F
W YELLOWSTONE  CLOUDY    57  45  64 W6        30.11S
* THREE FORKS  CLOUDY    66  25  21 N/A        N/A
* BOULDER HILL N/A       53  48  83 N12        N/A
* MONIDA PASS  N/A       49  44  83 W11        N/A
* RAYNOLDS PAS N/A       55  33  43 SE12G22    N/A
* WHITEHALL    N/A       66  47  51 NE6G11     N/A
* WISE RIVER   N/A       60  44  56 SE10G18    N/A
$$

MTZ009>010-012-014-046-048-049-054-222300-
EAST SLOPES AND CENTRAL MONTANA
CITY           SKY/WX    TMP DP  RH WIND       PRES   REMARKS
CUT BANK       CLOUDY    52  46  80 N23       30.19S
GREAT FALLS    CLOUDY    57  52  83 N9        30.12S
HELENA         CLOUDY    64  48  56 N12G17    30.06F
MALMSTROM AFB  PTSUNNY   59  52  78 NE10      30.13S
* CONRAD       CLOUDY    57  54  90 N8         N/A
* DEARBORN     N/A       60  49  67 N9G15      N/A
* EAST GLACIER N/A       47  46  96 E17G23     N/A
* MONARCH      N/A       50  46  86 NW6G12     N/A
* PENDROY      N/A       52  51  96 NE12G17    N/A
* SAINT MARY   N/A       46  45  96 N6G15      N/A
* SWEET GRASS  N/A       48  48 100 NE21G29    N/A
$$

MTZ011-013-016-021-035-040-045-047-050-051-222300-
NORTH CENTRAL MONTANA
CITY           SKY/WX    TMP DP  RH WIND       PRES   REMARKS
HAVRE          LGT RAIN  61  57  87 E8        30.11S
LEWISTOWN      RAIN      55  54  96 NW7       30.10S VSB 3
* CHESTER      N/A       56  53  90 NE9G14     N/A
* DENTON       N/A       57  56  96 NW11       N/A
* GEYSER       N/A       58  50  75 NE8        N/A
* JUDITH GAP   N/A       54  54 100 VRB12G17    N/A
* LOMA         N/A       61  57  87 NW9        N/A
$$

MTZ017>020-022>027-061-062-222300-
NORTHEAST MONTANA
CITY           SKY/WX    TMP DP  RH WIND       PRES   REMARKS
GLASGOW        CLOUDY    66  55  68 E17       30.09S
GLENDIVE       CLOUDY    66  61  84 NE15      30.08R
JORDAN         CLOUDY    66  55  68 E18G25    30.06S
SIDNEY         CLOUDY    66  59  78 NE10      30.10F
WOLF POINT     LGT RAIN  66  55  68 NE13      30.08F
* BEAVER HILL  N/A       67  59  76 NE16G21    N/A
* CIRCLE       N/A       61  59  93 N6G13      N/A
* LINDSAY DVD  N/A       65  57  75 NE18       N/A
* SACO         N/A       65  55  70 E17        N/A
$$

MTZ028>042-056>058-222300-
SOUTHCENTRAL AND SOUTHEAST MONTANA
CITY           SKY/WX    TMP DP  RH WIND       PRES   REMARKS
BAKER          CLOUDY    70  59  68 E15       30.06S
BILLINGS       CLOUDY    64  55  73 NE10      30.04F
LIVINGSTON     CLOUDY    55  54  96 E9        30.06F
MILES CITY     PTSUNNY   73  55  53 E7        30.01F
* LAUREL APT   CLOUDY    64  55  73 N7         N/A
* ROUNDUP APT  CLOUDY    61  54  78 E7         N/A
* ALZADA       N/A       72  59  64 NE14G19    N/A
* HYSHAM       N/A       68  48  49 E8G14      N/A
* LAME DEER    N/A       64  55  73 NE9G14     N/A
* REED POINT   N/A       66  53  63 NE4G11     N/A
* ROSCOE HILL  N/A       55  48  77 W2         N/A
$$

REGIONAL REPORTS...DAKOTAS
CITY           SKY/WX    TMP DP  RH WIND       PRES   REMARKS
WILLISTON      CLOUDY    66  55  68 E14       30.11S
DICKINSON      CLOUDY    70  61  73 NE8       30.06S
BEACH          N/A       66  63  90 E15       30.08S
CROSBY         CLOUDY    64  55  73 NE9       30.15S
TIOGA          CLOUDY    63  59  87 NE12      30.16R
WATFORD CITY   CLOUDY    64  57  78 NE14      30.09S
BISMARCK       CLOUDY    72  64  76 E13       30.05R
GRAND FORKS    CLOUDY    72  63  73 N16       30.03R
FARGO          CLOUDY    72  66  81 N10       30.02R
BUFFALO SD     PTCLDY    70  61  73 E12       29.99F
RAPID CITY     CLOUDY    75  61  62 E6        30.03F
$$

REGIONAL REPORTS...WYOMING/IDAHO/WASHINGTON
CITY           SKY/WX    TMP DP  RH WIND       PRES   REMARKS
GILLETTE       PTSUNNY   81  52  37 E14G24    29.98F
SHERIDAN       CLOUDY    70  55  59 N6        30.01F
CODY           CLOUDY    64  48  56 E5        30.05S
YELLOWSTONE LA CLOUDY    52  43  72 CALM      30.19F
SALMON         CLOUDY    61  45  56 S17G22    30.01S
MULLAN PASS    PTSUNNY   57  48  72 CALM      30.10S
SAND POINT     CLOUDY    64  48  56 N13G28    30.04F
SPOKANE        PTCLDY    72  50  46 NE12G22   29.99F
$$

REGIONAL REPORTS...ALBERTA
CITY           SKY/WX    TMP DP  RH WIND       PRES   REMARKS
CALGARY        CLOUDY    50  46  86 E10       30.31S

$$




USA.gov is the U.S. government's official web portal to all federal, state and local government web resources and services.